Date String (YYYY-MM-DD hh:mm:ss) UTC,Instrument flags,Ambient pressure (hPa),Sample flow (lpm),Bypass flow (lpm),Sample temperature (°C),Ambient temperature (°C),ASC tube jacket temperature (°C),LED temperature (°C),Box temperature (°C),Sample RH (%),Span deviation,Mass concentration (μg/m³),Mass concentration (μg/m³),Mass concentration (μg/m³)
DateTimeUTC,F1_M11,P_M11,Q1_M11,Q2_M11,T1_M11,T2_M11,T3_M11,T4_M11,T5_M11,U1_M11,ZSPAN_M11,X2_M11,X0_M11,X1_M11
2022-04-16 13:00:00,,0827.4,5.00,0.00,22.9,21.9,00.0,31.8,24.6,12.3,0000.0,0004.82,0014.25,0003.72
2022-04-16 13:01:00,,0827.4,5.00,0.00,22.8,21.9,00.0,31.8,24.6,12.4,0000.0,0004.81,0014.04,0003.72
2022-04-16 13:02:00,,0827.4,5.01,0.00,22.8,21.9,00.0,31.8,24.6,12.5,0000.0,0004.82,0014.13,0003.72
2022-04-16 13:03:00,,0827.4,5.01,0.00,22.8,21.9,00.0,31.8,24.6,12.6,0000.0,0004.86,0013.38,0003.74
2022-04-16 13:04:00,,0827.4,5.00,0.00,22.8,21.8,00.0,31.8,24.6,12.7,0000.0,0004.92,0013.74,0003.75
2022-04-16 13:05:00,,0827.3,5.00,0.00,22.8,21.8,00.0,31.8,24.6,12.8,0000.0,0004.92,0013.64,0003.77
2022-04-16 13:06:00,,0827.4,4.98,0.00,22.8,21.8,00.0,31.8,24.6,12.9,0000.0,0004.98,0013.10,0003.80
2022-04-16 13:07:00,,0827.4,5.00,0.00,22.8,21.8,00.0,31.8,24.6,13.0,0000.0,0005.04,0012.78,0003.83
2022-04-16 13:08:00,,0827.4,4.99,0.00,22.8,21.8,00.0,31.7,24.6,13.1,0000.0,0005.07,0012.69,0003.86
2022-04-16 13:09:00,,0827.5,5.00,0.00,22.8,21.8,00.0,31.7,24.5,13.2,0000.0,0005.10,0012.26,0003.90
2022-04-16 13:10:00,,0827.5,5.01,0.00,22.7,21.8,00.0,31.7,24.5,13.3,0000.0,0005.13,0012.44,0003.95
2022-04-16 13:11:00,,0827.5,5.01,0.00,22.7,21.8,00.0,31.7,24.5,13.4,0000.0,0005.14,0012.58,0004.01
2022-04-16 13:12:00,,0827.4,5.01,0.00,22.7,21.8,00.0,31.7,24.5,13.4,0000.0,0005.17,0013.00,0004.05
2022-04-16 13:13:00,,0827.4,4.98,0.00,22.7,21.8,00.0,31.7,24.5,13.5,0000.0,0005.20,0013.08,0004.08
2022-04-16 13:14:00,,0827.4,5.00,0.00,22.7,21.8,00.0,31.7,24.5,13.5,0000.0,0005.18,0013.10,0004.11
2022-04-16 13:15:00,,0827.4,5.00,0.00,22.7,21.8,00.0,31.7,24.5,13.4,0000.0,0005.12,0012.92,0004.13
2022-04-16 13:16:00,,0827.4,5.01,0.00,22.7,21.8,00.0,31.7,24.5,13.4,0000.0,0005.11,0012.59,0004.16
2022-04-16 13:17:00,,0827.4,5.01,0.00,22.7,21.8,00.0,31.7,24.5,13.4,0000.0,0005.07,0012.80,0004.16
2022-04-16 13:18:00,,0827.4,4.99,0.00,22.7,21.8,00.0,31.7,24.5,13.4,0000.0,0005.01,0012.37,0004.18
2022-04-16 13:19:00,,0827.4,5.00,0.00,22.7,21.8,00.0,31.7,24.5,13.3,0000.0,0005.00,0013.10,0004.19
2022-04-16 13:20:00,,0827.4,4.98,0.00,22.7,21.8,00.0,31.7,24.4,13.3,0000.0,0005.01,0014.06,0004.18
2022-04-16 13:21:00,,0827.4,5.00,0.00,22.6,21.7,00.0,31.6,24.4,13.3,0000.0,0004.95,0013.93,0004.16
2022-04-16 13:22:00,,0827.4,5.00,0.00,22.6,21.7,00.0,31.6,24.4,13.2,0000.0,0004.93,0013.75,0004.14
2022-04-16 13:23:00,,0827.4,5.00,0.00,22.6,21.6,00.0,31.6,24.4,13.0,0000.0,0004.89,0013.91,0004.10
2022-04-16 13:24:00,,0827.3,5.01,0.00,22.6,21.6,00.0,31.6,24.3,12.9,0000.0,0004.84,0013.82,0004.06
2022-04-16 13:25:00,,0827.3,5.01,0.00,22.6,21.6,00.0,31.6,24.3,12.7,0000.0,0004.79,0013.35,0004.01
2022-04-16 13:26:00,,0827.2,5.00,0.00,22.6,21.5,00.0,31.6,24.3,12.7,0000.0,0004.74,0012.98,0003.96
2022-04-16 13:27:00,,0827.3,4.99,0.00,22.5,21.5,00.0,31.6,24.2,12.5,0000.0,0004.68,0013.25,0003.90
2022-04-16 13:28:00,,0827.3,4.99,0.00,22.6,21.7,00.0,31.6,24.3,12.4,0000.0,0004.67,0013.37,0003.85
2022-04-16 13:29:00,,0827.4,5.02,0.00,22.7,22.5,00.0,31.6,24.5,12.2,0000.0,0004.62,0013.36,0003.79
2022-04-16 13:30:00,,0827.4,5.01,0.00,22.8,23.1,00.0,31.6,24.7,12.0,0000.0,0004.55,0012.59,0003.72
2022-04-16 13:31:00,,0827.4,5.00,0.00,22.8,23.1,00.0,31.6,24.8,12.0,0000.0,0004.50,0012.09,0003.67
2022-04-16 13:32:00,,0827.3,5.00,0.00,22.9,22.9,00.0,31.7,24.8,12.0,0000.0,0004.47,0011.71,0003.61
2022-04-16 13:33:00,,0827.3,5.00,0.00,22.9,22.8,00.0,31.7,24.8,12.1,0000.0,0004.44,0012.01,0003.56
2022-04-16 13:34:00,,0827.2,5.00,0.00,22.9,22.6,00.0,31.7,24.8,12.1,0000.0,0004.40,0011.57,0003.52
2022-04-16 13:35:00,,0827.2,5.00,0.00,22.9,22.5,00.0,31.7,24.8,11.9,0000.0,0004.32,0011.02,0003.49
2022-04-16 13:36:00,,0827.5,4.99,0.00,22.9,22.4,00.0,31.7,24.7,11.8,0000.0,0004.26,0010.79,0003.45
2022-04-16 13:37:00,,0827.8,5.00,0.00,22.8,22.3,00.0,31.7,24.7,11.8,0000.0,0004.24,0010.90,0003.43
2022-04-16 13:38:00,,0827.8,5.00,0.00,22.8,22.2,00.0,31.7,24.7,11.8,0000.0,0004.24,0010.47,0003.41
2022-04-16 13:39:00,,0827.6,5.00,0.00,22.8,22.2,00.0,31.7,24.7,11.8,0000.0,0004.22,0010.53,0003.40
2022-04-16 13:40:00,,0827.5,5.01,0.00,22.8,22.1,00.0,31.7,24.6,11.7,0000.0,0004.26,0010.63,0003.38
2022-04-16 13:41:00,,0827.7,5.01,0.00,22.8,22.0,00.0,31.7,24.6,11.7,0000.0,0004.26,0010.61,0003.37
2022-04-16 13:42:00,,0827.6,5.00,0.00,22.8,21.9,00.0,31.7,24.6,11.7,0000.0,0004.22,0010.21,0003.36
2022-04-16 13:43:00,,0827.5,5.00,0.00,22.7,21.9,00.0,31.7,24.5,11.7,0000.0,0004.20,0010.06,0003.36
2022-04-16 13:44:00,,0827.7,5.00,0.00,22.7,21.8,00.0,31.7,24.5,11.7,0000.0,0004.16,0009.82,0003.36
2022-04-16 13:45:00,,0827.1,4.99,0.00,22.7,21.8,00.0,31.7,24.5,11.6,0000.0,0004.18,0009.85,0003.35
2022-04-16 13:46:00,,0827.1,4.99,0.00,22.7,21.8,00.0,31.7,24.5,11.6,0000.0,0004.22,0009.95,0003.35
2022-04-16 13:47:00,,0827.1,5.01,0.00,22.7,21.8,00.0,31.7,24.5,11.5,0000.0,0004.23,0009.95,0003.34
2022-04-16 13:48:00,,0827.1,5.00,0.00,22.7,21.7,00.0,31.6,24.5,11.5,0000.0,0004.22,0010.44,0003.33
2022-04-16 13:49:00,,0827.1,5.00,0.00,22.7,21.7,00.0,31.6,24.4,11.6,0000.0,0004.22,0011.22,0003.32
2022-04-16 13:50:00,,0827.1,5.00,0.00,22.6,21.7,00.0,31.6,24.4,11.6,0000.0,0004.21,0011.12,0003.32
2022-04-16 13:51:00,,0827.1,5.00,0.00,22.6,21.6,00.0,31.6,24.4,11.6,0000.0,0004.14,0010.57,0003.31
2022-04-16 13:52:00,,0827.0,5.00,0.00,22.6,21.7,00.0,31.6,24.4,11.7,0000.0,0004.10,0010.45,0003.32
2022-04-16 13:53:00,,0827.1,5.01,0.00,22.6,21.6,00.0,31.6,24.3,11.6,0000.0,0004.10,0010.43,0003.31
2022-04-16 13:54:00,,0827.0,4.98,0.00,22.6,21.6,00.0,31.6,24.3,11.7,0000.0,0004.09,0010.72,0003.30
2022-04-16 13:55:00,,0827.0,5.01,0.00,22.6,22.1,00.0,31.6,24.4,11.7,0000.0,0004.09,0010.71,0003.29
2022-04-16 13:56:00,,0827.0,5.00,0.00,22.7,22.9,00.0,31.6,24.6,11.7,0000.0,0004.02,0010.55,0003.29
2022-04-16 13:57:00,,0827.0,5.01,0.00,22.8,23.4,00.0,31.7,24.8,11.6,0000.0,0003.99,0010.48,0003.29
2022-04-16 13:58:00,,0826.9,5.00,0.00,22.9,23.2,00.0,31.7,24.9,11.6,0000.0,0003.97,0010.50,0003.29
2022-04-16 13:59:00,,0827.0,5.00,0.00,22.9,23.0,00.0,31.7,24.9,11.6,0000.0,0003.99,0009.97,0003.29
